Helicity
38 60 25 19 50 77 112 111 99 78 144 190 182 177 183 173 151 143 126 112 105 110 104 108 111 100 99 101 94 92 107 107 110 112 108 106 94 102 109 103 70 87 91
44 58 60 63 95 86 103 92 89 97 130 164 155 172 191 181 166 153 138 132 134 123 113 123 117 120 120 111 132 146 121 99 113 115 111 110 92 90 101 105 96 89 99
111 89 76 75 70 86 104 116 101 101 142 145 145 169 182 179 181 171 166 139 124 117 120 118 134 134 135 147 156 145 135 142 137 117 59 66 83 86 97 100 85 88 86
119 92 90 104 80 86 103 119 110 98 131 159 169 180 176 183 193 189 189 165 159 127 111 108 116 148 152 167 165 157 155 149 135 74 51 53 66 83 89 84 84 84 87
104 101 116 152 129 97 96 122 140 126 140 171 168 186 190 183 187 169 169 166 149 132 116 113 111 143 174 190 186 170 161 153 137 60 48 44 45 74 94 95 97 85 86
96 69 123 170 152 107 102 125 148 142 136 160 188 187 158 125 102 83 81 109 111 96 101 119 152 172 163 180 176 164 152 148 75 57 52 68 65 82 84 99 128 141 115
106 89 125 172 157 140 105 143 163 173 175 156 180 187 152 339 42 177 52 102 81 80 93 121 161 188 136 145 154 155 156 118 63 49 50 49 73 79 91 116 135 156 152
144 131 106 145 145 145 133 151 164 203 184 150 160 189 191 243 182 397 166 181 46 88 138 118 167 157 120 126 144 156 146 105 57 46 40 33 75 79 93 116 134 133 140
157 152 131 131 129 132 143 159 165 193 200 155 180 247 190 314 157 295 253 182 92 174 126 113 159 158 121 139 146 149 137 92 58 40 34 35 67 72 85 101 84 90 97
176 173 184 159 137 125 131 175 176 173 178 158 226 288 308 333 259 321 321 175 36 189 72 138 161 152 123 130 134 131 111 74 46 43 36 50 63 66 62 77 53 53 72
186 181 202 191 169 134 147 180 201 181 157 165 232 302 301 268 302 310 271 127 89 194 181 181 154 134 115 116 122 110 60 41 40 32 40 56 44 54 67 53 51 45 50
198 220 228 230 206 161 161 213 189 207 188 185 202 270 310 331 333 323 266 147 169 222 189 140 164 126 83 75 91 79 42 39 45 52 45 44 35 32 35 41 34 44 51
180 232 255 278 235 202 213 222 239 245 254 234 204 257 302 353 373 321 213 123 177 229 259 190 131 85 72 75 66 58 50 52 44 42 48 24 32 29 39 43 39 42 26
128 155 206 250 264 241 237 240 265 273 318 312 289 313 348 396 389 313 215 214 219 218 178 144 162 96 63 66 64 61 57 32 45 31 39 27 25 10 42 30 23 26 12
65 115 153 234 240 256 251 270 269 296 323 323 344 333 359 377 376 413 273 280 258 251 139 185 171 107 73 78 79 66 42 44 57 30 31 23 41 43 42 13 11 7 -2
68 85 164 210 260 276 272 262 281 316 329 346 387 350 357 373 344 290 287 267 264 245 101 186 217 131 61 73 81 59 35 41 27 30 27 27 54 48 18 8 9 14 12
63 49 142 200 283 298 303 273 300 295 349 323 328 340 298 277 310 306 329 407 264 290 186 198 158 145 83 85 83 63 57 46 20 29 40 46 44 27 11 24 29 24 24
41 32 79 184 239 292 334 325 338 293 344 308 273 232 183 214 188 235 354 388 362 342 253 249 180 131 105 102 94 86 60 56 21 32 48 40 34 27 25 39 41 37 28
57 26 52 149 198 281 298 307 314 278 332 293 231 171 122 160 230 282 366 480 375 327 304 265 189 172 143 109 93 104 65 63 30 38 32 37 34 24 33 44 44 47 35
68 36 62 109 159 220 287 315 296 278 284 268 228 168 125 169 205 232 319 627 435 353 312 275 220 191 144 135 140 118 88 83 50 46 42 45 32 32 30 26 36 36 30
44 51 69 54 138 235 312 390 335 298 254 225 207 132 132 122 172 221 331 373 361 339 315 276 274 237 194 166 179 154 129 98 62 59 58 46 32 25 17 12 36 31 26
77 45 34 40 128 180 299 337 320 256 244 176 175 140 115 132 172 137 296 526 343 305 285 285 254 254 217 183 186 155 189 122 74 65 62 34 32 15 5 -4 7 12 1
68 115 25 58 105 164 248 300 281 260 220 187 186 151 118 172 128 141 190 404 391 338 242 229 252 268 275 184 146 205 244 163 104 77 34 37 24 13 5 -1 8 13 1
49 54 39 65 105 186 234 247 222 244 220 194 224 155 150 170 199 277 283 433 337 267 283 240 250 264 284 254 177 222 172 134 144 149 90 65 51 54 102 111 53 48 18
27 23 64 66 115 203 244 224 189 217 177 183 196 166 141 152 195 252 251 271 304 269 241 214 210 222 242 305 258 256 224 153 127 148 156 129 81 54 69 23 54 88 86
-6 -45 87 92 110 160 190 197 196 204 190 217 168 179 144 142 121 161 184 222 245 229 201 206 208 247 268 238 248 238 245 224 168 163 174 145 113 147 89 101 151 52 53
Wind_Speed
20 22 21 20 17 15 14 13 12 14 18 20 21 22 23 24 24 25 26 26 23 19 18 17 14 13 12 13 14 16 18 20 22 25 26 27 26 25 25 24 26 27 28
23 21 21 21 20 17 17 17 17 17 19 20 23 24 23 20 19 21 22 22 21 17 13 13 13 12 11 9 9 11 15 18 22 25 26 25 24 24 22 21 22 24 24
24 23 23 23 23 22 22 22 22 22 21 22 23 22 20 19 17 16 17 16 14 15 11 8 7 9 9 6 8 11 13 16 18 21 25 24 23 23 22 21 23 25 27
23 23 22 22 22 22 24 26 24 24 23 22 21 20 20 17 16 17 17 14 14 18 13 5 3 3 6 7 8 10 12 13 15 19 20 22 22 21 21 20 23 25 28
23 23 23 23 22 21 22 24 26 26 25 23 21 21 20 18 14 13 14 11 14 12 12 7 3 4 2 3 6 7 9 13 14 15 17 18 17 19 20 19 21 22 25
19 19 21 23 22 21 20 21 23 24 24 25 23 23 16 17 10 12 7 2 6 7 6 8 2 2 7 2 2 4 7 9 13 13 14 14 15 13 15 17 17 19 22
15 16 17 20 22 20 18 19 21 22 22 23 23 26 25 16 15 17 14 7 5 6 7 7 1 3 9 5 4 3 8 9 9 10 10 10 12 13 12 9 10 13 18
13 13 13 15 18 18 16 15 17 20 20 21 23 22 22 20 23 14 2 9 18 7 6 3 2 4 13 9 4 3 6 6 7 9 9 8 10 10 9 11 12 15 17
9 9 10 10 12 13 15 14 14 16 19 19 17 19 16 22 27 11 18 12 2 12 5 8 6 7 11 8 4 2 3 4 6 5 6 7 7 8 10 12 15 10 14
6 3 4 5 6 9 9 11 12 13 16 15 15 13 14 18 13 17 17 19 17 4 3 7 11 14 14 9 7 3 2 1 4 3 6 8 12 16 17 10 10 15 15
4 3 3 4 2 5 5 7 10 13 14 13 13 15 15 10 11 19 14 15 10 1 11 9 10 19 18 19 8 6 7 6 2 4 6 9 15 15 18 7 16 15 18
8 8 7 8 7 3 2 2 7 9 10 11 13 14 10 8 12 14 14 16 7 3 13 16 13 23 19 24 12 8 4 5 6 5 5 10 12 8 4 14 15 16 17
10 9 11 12 11 9 7 3 3 4 6 9 13 15 11 9 9 11 14 11 9 11 10 12 16 24 25 26 17 14 9 9 11 6 7 9 6 7 8 11 12 15 17
22 15 17 17 16 15 11 9 7 6 6 8 10 14 14 14 16 15 16 14 16 14 15 13 22 27 23 22 21 17 12 9 8 8 2 2 6 7 5 7 12 17 18
24 19 23 23 24 21 18 14 12 10 9 9 10 15 19 20 21 17 18 18 27 27 24 21 23 23 23 21 22 17 5 5 2 9 13 10 2 5 6 8 10 13 15
24 21 22 27 30 26 23 19 17 15 13 12 13 15 21 20 23 21 22 23 32 34 38 26 25 24 21 24 21 18 9 4 13 3 4 3 3 4 7 9 9 12 15
36 26 24 27 33 31 26 21 19 18 15 13 14 12 23 27 25 25 22 30 39 35 32 31 25 25 24 29 28 22 15 16 26 17 14 4 4 5 7 7 9 11 13
39 32 27 30 29 32 29 24 20 18 17 14 14 12 19 23 25 25 31 41 39 37 34 34 34 33 32 45 55 30 22 26 28 20 17 6 4 4 5 6 7 10 11
38 36 30 27 25 30 29 24 21 20 18 14 10 10 18 21 22 24 38 41 45 42 42 41 43 39 57 56 52 41 43 31 34 25 18 15 8 7 8 6 7 9 9
50 36 26 26 22 23 23 21 22 24 20 12 6 9 15 15 24 27 51 47 50 51 54 51 48 52 50 41 43 41 39 34 37 31 22 20 12 13 9 7 7 11 10
51 32 22 22 21 20 20 18 19 24 16 9 7 10 15 19 23 31 54 42 57 55 58 52 50 46 41 38 31 32 35 38 42 33 26 23 18 17 13 9 10 18 16
48 30 18 25 20 21 20 17 21 20 21 9 5 8 12 18 23 52 56 53 50 60 62 53 55 47 43 43 42 31 30 38 46 38 32 28 24 19 13 11 11 16 19
45 24 15 29 22 21 19 15 19 23 30 10 6 5 6 7 9 55 43 53 54 56 57 57 55 53 47 45 38 41 37 34 28 37 31 27 23 22 21 19 18 20 15
53 22 19 25 22 22 20 17 17 23 17 15 11 5 3 8 9 7 43 56 51 57 59 59 59 56 49 48 45 47 41 32 31 34 36 26 23 21 19 17 18 16 16
52 23 26 26 24 23 21 19 17 20 16 15 12 3 6 12 14 19 23 41 52 56 70 61 58 54 54 48 42 44 41 38 33 39 37 33 31 23 22 20 18 18 20
51 27 38 30 30 29 25 19 18 14 9 8 4 3 10 11 12 23 9 35 55 60 62 55 48 50 51 45 45 47 43 42 36 40 41 33 28 26 23 25 25 18 20
Wind_Direction
89 65 71 75 72 79 77 78 71 97 119 117 115 116 115 112 108 105 102 99 95 86 81 81 79 80 79 76 72 65 57 51 57 62 62 60 59 56 53 51 54 52 52
69 75 71 71 74 81 86 89 86 93 110 113 116 119 119 115 113 109 107 103 99 90 81 83 77 76 76 71 57 53 51 52 61 65 64 58 53 54 48 42 45 49 45
63 73 73 72 78 83 93 97 95 103 109 114 116 118 119 118 117 112 110 104 98 93 77 81 80 74 74 55 55 56 54 59 61 62 64 58 55 53 49 47 51 52 53
66 68 77 72 77 86 99 102 102 109 110 115 119 121 125 122 121 119 113 107 100 98 88 59 327 13 66 69 70 63 61 64 63 64 54 57 55 55 55 53 53 54 55
66 72 78 76 76 87 100 105 107 111 115 118 124 128 130 132 137 133 122 113 102 98 94 72 343 289 290 69 75 69 71 75 68 51 50 54 53 56 55 49 50 47 50
57 60 69 79 83 96 103 110 109 115 122 127 131 130 130 129 153 157 116 49 70 77 61 66 49 299 261 172 139 102 84 80 70 54 48 47 47 45 47 47 38 41 48
69 61 62 83 91 93 107 111 114 116 125 133 134 136 135 83 273 67 300 355 37 52 44 49 323 270 242 223 133 122 93 85 57 49 49 38 37 50 40 14 6 17 32
90 67 65 87 96 99 107 115 123 124 131 138 143 141 142 130 138 84 131 124 131 97 30 66 211 234 237 233 156 128 94 71 46 50 44 18 48 40 21 16 13 27 28
48 57 51 68 99 104 114 120 132 135 138 144 147 149 156 151 155 155 152 143 174 318 111 130 217 228 227 224 206 145 90 60 49 12 10 355 16 16 28 32 34 352 22
14 53 57 47 90 109 116 133 143 150 153 156 154 158 156 154 169 153 152 151 150 336 221 233 240 228 229 224 209 162 120 28 16 348 358 29 57 61 58 37 27 43 34
313 278 306 317 328 130 111 131 153 165 168 172 170 160 162 179 171 162 166 164 147 323 188 224 226 231 229 231 208 148 120 284 328 336 17 64 65 63 64 24 55 48 46
248 241 250 284 277 222 294 120 171 176 181 189 188 182 186 192 179 178 177 179 169 232 188 152 222 227 216 229 224 143 291 274 290 304 354 74 69 48 339 55 55 48 43
272 265 251 268 270 246 259 270 276 215 208 208 203 200 213 208 215 227 253 226 240 233 199 179 189 218 225 229 223 238 255 265 276 296 71 75 50 44 44 44 42 44 46
305 288 278 269 261 249 266 257 286 270 270 241 239 217 223 232 233 234 231 224 248 232 232 181 189 220 217 225 228 235 249 280 282 292 6 33 60 273 11 24 44 55 54
296 283 276 268 264 260 260 270 283 281 270 262 257 238 235 238 234 228 212 234 249 242 228 218 191 196 215 221 228 236 244 283 33 263 256 258 6 343 14 34 44 53 50
297 277 288 266 259 254 253 259 273 287 290 287 290 246 226 226 213 211 205 243 240 234 234 221 193 189 205 225 227 242 253 276 250 245 295 283 307 358 49 50 48 49 51
306 296 272 279 254 243 244 250 270 282 289 274 287 255 204 196 204 213 230 236 236 227 228 220 184 199 212 229 228 237 247 252 250 253 261 302 40 37 51 32 39 46 42
301 295 284 285 251 235 238 247 264 276 291 291 289 235 206 211 208 219 248 238 227 225 216 212 201 210 220 225 221 234 245 247 251 256 262 281 326 8 11 2 19 24 37
302 298 282 275 247 236 238 248 262 279 296 298 286 226 207 210 217 225 247 233 222 219 220 216 212 212 220 221 224 231 236 245 249 255 261 267 292 329 332 358 30 44 32
308 298 277 271 250 234 236 250 271 288 303 306 255 217 208 223 217 225 250 224 220 221 219 218 214 219 219 221 226 234 240 246 249 254 264 270 287 295 325 13 8 348 349
315 304 277 266 240 229 228 234 263 281 297 285 238 218 221 220 243 243 238 219 222 216 217 214 210 208 215 216 221 235 243 248 250 257 265 272 280 288 302 325 338 323 327
323 311 281 272 239 227 226 245 284 289 309 295 261 228 227 237 248 263 238 211 213 216 218 209 210 206 216 216 230 225 241 252 251 257 263 270 275 286 304 319 336 329 324
323 313 282 273 252 239 240 251 289 304 317 313 274 242 249 273 206 254 227 217 215 211 205 209 208 210 213 218 223 240 243 254 251 259 264 272 278 284 293 302 325 319 324
317 313 290 272 253 240 235 249 264 296 315 324 330 358 62 38 105 206 221 216 210 212 213 212 214 214 212 217 228 245 247 256 254 263 268 269 276 283 286 300 315 317 319
321 313 289 274 255 240 234 246 266 293 318 334 340 53 79 102 108 114 206 216 216 217 214 214 215 217 223 222 223 236 247 256 263 269 269 266 276 279 286 298 315 320 319
326 319 285 274 261 251 247 244 261 278 309 333 347 112 144 116 136 135 193 228 220 215 214 216 213 216 222 222 228 238 241 251 257 268 273 271 272 285 286 294 304 313 322